Terminal Aerodrome Forecast
Issued by NWS

Home | Current Version | Previous Version | Text Only | Print | Product List | Glossary On
Versions: 1 2 3 4 5 6 7 8 9 10 11 12 13 14 15 16 17 18 19 20 21 22 23 24 25 26 27 28 29 30 31 32 33 34 35 36 37 38 39 40 41 42 43 44 45 46 47 48 49 50
520
FTUS41 KCTP 090527
TAFLNS
TAF
KLNS 090527Z 0906/1006 11008KT 1SM -SN BR OVC004
     FM090900 09005KT 3/4SM -SN BR OVC003
     FM091500 09003KT 3/4SM -SN BR OVC009
     FM100400 31005KT 3SM -SHSN BR OVC015=

USA.gov is the U.S. government's official web portal to all federal, state and local government web resources and services.